Weather Roundup
Issued by NWS Chicago, IL

Home | Current Version | Previous Version | Graphics & Text | Print | Product List | Glossary On
Versions: 1 2 3 4 5 6 7 8 9 10 11 12 13 14 15 16 17 18 19 20 21 22 23 24 25 26 27 28 29 30 31 32 33 34 35 36 37 38 39 40 41 42 43 44 45 46 47 48 49 50
000
NZUS59 KLOT 191308
HRRLOT

CHICAGO AREA WEATHER ROUNDUP
NATIONAL WEATHER SERVICE CHICAGO/ROMEOVILLE IL
700 AM CST FRI JAN 19 2018

NOTE: "FAIR" INDICATES FEW OR NO CLOUDS BELOW 12,000 FEET WITH NO
SIGNIFICANT WEATHER AND/OR OBSTRUCTIONS TO VISIBILITY.

* THESE STATIONS ARE NOT UNDER NWS QUALITY CONTROL. THEY ALSO MAY NOT
  REPORT WEATHER SUCH AS PRECIPITATION OR FOG.

ILZ005-006-012>014-019>023-191400-
NORTHEAST ILLINOIS

CITY           SKY/WX    TMP DP  RH WIND       PRES   REMARKS
OHARE            N/A     29  19  66 SW16      29.89S WCI  17
MIDWAY           N/A     30  19  63 SW14      29.92R WCI  19
AURORA           N/A     25  18  74 S13       29.90F WCI  14
LANSING*         N/A     23  19  83 SW8       29.95R WCI  14
JOLIET*          N/A     29  19  67 SW9       29.94S WCI  20
WAUKEGAN         N/A     27  19  72 SW12      29.86S WCI  17
DUPAGE AIRPORT   N/A     27  19  72 SW14      29.89S WCI  16
WHEELING         N/A     29  20  69 SW10      29.90S WCI  20
KANKAKEE*        N/A    N/A N/A N/A SW15G22   29.99S
MORRIS*          N/A     27  19  69 SW15      29.92F WCI  16
LEWIS AIRPORT*   N/A     27  19  73 SW13      29.93R WCI  16
NORTHERLY ISL    N/A     30  19  63 S7          N/A  WCI  23
$$

WIZ051-052-058>065-066-070>072-191400-
SOUTHEAST WISCONSIN

CITY           SKY/WX    TMP DP  RH WIND       PRES   REMARKS
MILWAUKEE        N/A     28  20  71 SW8       29.83S WCI  20
KENOSHA*         N/A     29  19  66 SW9       29.85F WCI  20
RACINE*          N/A     29  20  69 SW13G23   29.86S WCI  19
BURLINGTON       N/A     24  18  75 SW9       29.85S WCI  15
WEST BEND        N/A     27  21  80 SW8       29.80R WCI  18
$$

INZ001>003-010>013-019-020-191400-
NORTHWEST INDIANA

CITY           SKY/WX    TMP DP  RH WIND       PRES   REMARKS
GARY*          PTCLDY    28  16  59 SW12G23   29.95S WCI  18
MICHIGAN CITY* NOT AVBL
RENSSELAER*    NOT AVBL
VALPARAISO       N/A     25  16  68 SW13      29.96F WCI  14
$$

LMZ740>746-191400-
SOUTHERN LAKE MICHIGAN

STATION/POSITION TIME  SKY/WX   TEMP WIND        PRES    VSBY
                                AIR  DIR/SP/G
                 (UTC)          (F)  (DEG/KT/KT) (MB)    (MI)
HARRISON CRIB    1240            32  200/ 19/ 24   N/A
BURNHAM HARBOR   1300            30  230/  7/ 11   N/A
CALUMET HARBOR   1248            27  210/ 10/ 13 1012.8R
BURNS HARBOR     1240            27  190/ 16/ 21 1014.6S
MICHIGAN CITY    1240            28  180/ 15/ 22   N/A
$$

ABBREVIATIONS USED IN REMARKS
   TC - TEMPERATURE IN CELSIUS
  WCI - WIND CHILL INDEX
   HX - HEAT INDEX
  VSB - VISIBILITY
$$



USA.gov is the U.S. government's official web portal to all federal, state and local government web resources and services.